Weather History for Tri-Cities, TN

Change the Weather History Date:

Sunday, July 7, 2013

  Actual Average Record
Temperature  
Mean Temperature 72 °F 75 °F  
Max Temperature 77 °F 86 °F 98 °F (2012)
Min Temperature 66 °F 64 °F 50 °F (1972)
Degree Days  
Heating Degree Days 0 0  
Month to date heating degree days 0 0  
Since 1 June heating degree days 0 11  
Since 1 July heating degree days 0 0  
Cooling Degree Days 7 10  
Month to date cooling degree days 62 67  
Year to date cooling degree days 363 346  
Since 1 June cooling degree days 291 273  
Growing Degree Days 22 (Base 50)    
Moisture  
Dew Point 67 °F    
Average Humidity 83    
Maximum Humidity 93    
Minimum Humidity 73    
Precipitation  
Precipitation 0.08 in 0.15 in 1.34 in (1939)
Month to date precipitation 2.60 1.01  
Year to date precipitation 35.66 22.30  
Snow  
Snow 0.00 in 0.00 in - ()
Month to date snowfall 0.0 0.0  
Since 1 June snowfall 0.0 0.0  
Since 1 July snowfall 0.0 0.0  
Snow Depth 0.00 in    
Sea Level Pressure  
Sea Level Pressure 30.12 in    
Wind  
Wind Speed 4 mph (WSW)    
Max Wind Speed 16 mph    
Max Gust Speed 22 mph    
Visibility 10 miles    
Events Rain    
T = Trace of Precipitation, MM = Missing Value Source: NWS Daily Summary

Daily Weather History Graph

Daily Weather History Graph

Search for Another Location

Airport:

Trip Planner

Search our weather history database for the weather conditions in past years. The results will help you decide how hot, cold, wet, or windy it might be!

Date:

Astronomy

Jul. 07, 2013 Rise Set
Actual Time 6:18 AM EDT 8:50 PM EDT
Civil Twilight 5:48 AM EDT 9:20 PM EDT
Nautical Twilight 5:10 AM EDT 9:58 PM EDT
Astronomical Twilight 4:29 AM EDT 10:39 PM EDT
Moon 5:51 AM EDT (7/7) 8:15 PM EDT (7/7)
Length of Visible Light 15h 32m
Length of Day
14h 32m
Waning Crescent, 0% of the Moon is Illuminated
Jul 7
Waning Crescent
Jul 8
New
Jul 15
First Quarter
Jul 22
Full
Jul 29
Last Quarter

Hourly Weather History & Observations

Time (EDT) Temp. Dew Point Humidity Pressure Visibility Wind Dir Wind Speed Gust Speed Precip Events Conditions
12:53 AM 70.0 °F 66.0 °F 87% 30.12 in 10.0 mi Calm Calm - N/A   Overcast
1:53 AM 69.1 °F 66.0 °F 90% 30.12 in 10.0 mi Calm Calm - 0.00 in   Overcast
2:53 AM 69.1 °F 66.0 °F 90% 30.09 in 8.0 mi Calm Calm - 0.00 in Rain Light Rain
3:53 AM 68.0 °F 66.0 °F 93% 30.07 in 10.0 mi East 3.5 mph - 0.02 in   Mostly Cloudy
4:53 AM 68.0 °F 66.0 °F 93% 30.06 in 10.0 mi Calm Calm - N/A   Mostly Cloudy
4:55 AM 68.0 °F 66.0 °F 93% 30.14 in 10.0 mi Calm Calm - N/A   Mostly Cloudy
5:02 AM 68.0 °F 66.0 °F 93% 30.14 in 10.0 mi Calm Calm - N/A   Mostly Cloudy
5:53 AM 68.0 °F 66.0 °F 93% 30.07 in 10.0 mi Calm Calm - N/A   Mostly Cloudy
6:53 AM 68.0 °F 66.0 °F 93% 30.07 in 10.0 mi Calm Calm - N/A   Mostly Cloudy
7:53 AM 70.0 °F 66.9 °F 90% 30.09 in 10.0 mi Calm Calm - N/A   Overcast
8:53 AM 72.0 °F 68.0 °F 87% 30.11 in 10.0 mi Calm Calm - 0.00 in   Mostly Cloudy
9:53 AM 75.0 °F 69.1 °F 82% 30.10 in 10.0 mi Calm Calm - N/A   Overcast
10:53 AM 75.9 °F 68.0 °F 76% 30.11 in 10.0 mi West 6.9 mph - N/A   Overcast
11:45 AM 75.0 °F 69.1 °F 82% 30.19 in 10.0 mi WNW 10.4 mph - N/A   Overcast
11:53 AM 73.9 °F 68.0 °F 82% 30.13 in 10.0 mi WNW 12.7 mph - N/A   Overcast
12:12 PM 72.0 °F 68.0 °F 87% 30.20 in 10.0 mi WNW 12.7 mph - 0.00 in Rain Light Rain
12:45 PM 72.0 °F 66.0 °F 81% 30.20 in 10.0 mi WNW 10.4 mph - 0.00 in   Overcast
12:53 PM 73.0 °F 66.9 °F 81% 30.13 in 10.0 mi WNW 6.9 mph - 0.00 in   Overcast
1:09 PM 73.0 °F 66.0 °F 79% 30.20 in 10.0 mi WNW 3.5 mph - N/A   Overcast
1:53 PM 73.0 °F 64.9 °F 76% 30.14 in 10.0 mi WSW 10.4 mph - N/A   Overcast
2:26 PM 73.9 °F 66.0 °F 76% 30.18 in 10.0 mi Calm Calm - 0.00 in   Overcast
2:53 PM 73.0 °F 68.0 °F 84% 30.12 in 10.0 mi West 5.8 mph - 0.00 in Rain Light Rain
3:53 PM 72.0 °F 68.0 °F 87% 30.11 in 10.0 mi SW 6.9 mph - 0.04 in Rain Light Rain
4:53 PM 71.1 °F 68.0 °F 90% 30.09 in 10.0 mi WSW 6.9 mph - 0.02 in Rain Light Rain
5:53 PM 73.0 °F 68.0 °F 84% 30.09 in 10.0 mi WSW 6.9 mph - 0.00 in   Overcast
6:53 PM 73.0 °F 66.9 °F 81% 30.09 in 10.0 mi SW 3.5 mph - N/A   Overcast
7:53 PM 72.0 °F 66.9 °F 84% 30.10 in 10.0 mi WSW 4.6 mph - N/A   Overcast
8:28 PM 71.1 °F 66.9 °F 87% 30.17 in 10.0 mi WSW 3.5 mph - 0.00 in Rain Light Rain
8:53 PM 70.0 °F 66.9 °F 90% 30.11 in 10.0 mi SSW 5.8 mph - 0.00 in   Overcast
9:53 PM 70.0 °F 66.0 °F 87% 30.12 in 10.0 mi West 5.8 mph - N/A   Mostly Cloudy
10:53 PM 69.1 °F 66.0 °F 90% 30.14 in 10.0 mi SSW 3.5 mph - N/A   Overcast
11:53 PM 68.0 °F 66.0 °F 93% 30.14 in 10.0 mi Calm Calm - N/A   Scattered Clouds